Roanoke, VA

4:33 PM EST on December 08, 2019 (GMT -0500)
Roanoke Regional-Woodrum

Weather History for KROA - October, 2019

Change the Weather History Date:

Tuesday, October 1, 2019

  Actual Average Record
Temperature  
Mean Temperature 80 °F 62 °F  
Max Temperature 91 °F 73 °F 95 °F (1941)
Min Temperature 69 °F 52 °F 32 °F (1993)
Degree Days  
Heating Degree Days 0 4  
Month to date heating degree days 4  
Since 1 July heating degree days 53  
Cooling Degree Days 15 2  
Month to date cooling degree days 2  
Year to date cooling degree days 1188  
Growing Degree Days 30 (Base 50)    
Moisture  
Dew Point 68 °F    
Average Humidity 78    
Maximum Humidity 93    
Minimum Humidity 44    
Precipitation  
Precipitation 0.00 in 0.09 in 4.05 in (1915)
Month to date precipitation 0.09  
Year to date precipitation 32.11  
Snow  
Snow 0.00 in - - ()
Month to date snowfall  
Since 1 July snowfall  
Since 1 September snowfall  
Snow Depth -    
Sea Level Pressure  
Sea Level Pressure 30.13 in    
Wind  
Wind Speed 3 mph (SSE)    
Max Wind Speed 8 mph    
Max Gust Speed -    
Visibility 10 miles    
Events      
T = Trace of Precipitation, MM = Missing Value Source: NWS Daily Summary

Daily Weather History Graph

Daily Weather History Graph

Search for Another Location

Airport or City:

Astronomy

Oct. 01, 2019 Rise Set
Actual Time 7:15 AM EDT 7:03 PM EDT
Civil Twilight 6:49 AM EDT 7:29 PM EDT
Nautical Twilight 6:18 AM EDT 7:59 PM EDT
Astronomical Twilight 5:48 AM EDT 8:30 PM EDT
Moon 10:25 AM EDT (10/1) 9:19 PM EDT (10/1)
Length of Visible Light 12h 40m
Length of Day
11h 48m
Waxing Crescent, 12% of the Moon is Illuminated
Oct 1
Waxing Crescent
Oct 5
First Quarter
Oct 13
Full
Oct 21
Last Quarter
Oct 27
New

Hourly Weather History & Observations

Time (EDT) Temp. Heat Index Dew Point Humidity Pressure Visibility Wind Dir Wind Speed Gust Speed Precip Events Conditions
12:54 AM 72.0 °F - 68.0 °F 87% 30.17 in 10.0 mi SSE 3.5 mph - N/A   Overcast
1:54 AM 72.0 °F - 66.9 °F 84% 30.17 in 10.0 mi SSW 3.5 mph - N/A   Overcast
2:54 AM 72.0 °F - 66.9 °F 84% 30.16 in 10.0 mi SSE 4.6 mph - N/A   Overcast
3:47 AM 71.1 °F - 66.9 °F 87% 30.19 in 10.0 mi SE 5.8 mph - N/A   Overcast
3:54 AM 71.1 °F - 66.9 °F 87% 30.15 in 10.0 mi SE 5.8 mph - N/A   Overcast
4:54 AM 71.1 °F - 66.9 °F 87% 30.16 in 10.0 mi ESE 4.6 mph - N/A   Mostly Cloudy
5:18 AM 69.1 °F - 66.0 °F 90% 30.18 in 10.0 mi Calm Calm - N/A   Partly Cloudy
5:54 AM 69.1 °F - 66.0 °F 90% 30.16 in 10.0 mi Calm Calm - N/A   Partly Cloudy
6:16 AM 69.1 °F - 66.0 °F 90% 30.19 in 10.0 mi Calm Calm - N/A   Scattered Clouds
6:25 AM 69.1 °F - 66.0 °F 90% 30.19 in 10.0 mi Calm Calm - N/A   Mostly Cloudy
6:54 AM 69.1 °F - 66.9 °F 93% 30.17 in 10.0 mi Calm Calm - N/A   Overcast
7:44 AM 69.1 °F - 66.9 °F 93% 30.20 in 10.0 mi Calm Calm - N/A   Overcast
7:54 AM 69.1 °F - 66.9 °F 93% 30.17 in 10.0 mi Calm Calm - N/A   Overcast
8:54 AM 70.0 °F - 66.9 °F 90% 30.17 in 10.0 mi Calm Calm - N/A   Overcast
9:17 AM 71.1 °F - 66.9 °F 87% 30.20 in 10.0 mi Calm Calm - N/A   Overcast
9:25 AM 72.0 °F - 66.9 °F 84% 30.20 in 10.0 mi Calm Calm - N/A   Overcast
9:46 AM 73.0 °F - 68.0 °F 84% 30.20 in 10.0 mi SE 3.5 mph - N/A   Mostly Cloudy
9:54 AM 72.0 °F - 68.0 °F 87% 30.17 in 10.0 mi SE 3.5 mph - N/A   Mostly Cloudy
10:17 AM 73.9 °F - 68.0 °F 82% 30.20 in 10.0 mi SSE 3.5 mph - N/A   Scattered Clouds
10:54 AM 77.0 °F - 69.1 °F 76% 30.17 in 10.0 mi Calm Calm - N/A   Partly Cloudy
11:54 AM 81.0 °F 84.4 °F 70.0 °F 69% 30.14 in 10.0 mi South 4.6 mph - N/A   Scattered Clouds
12:54 PM 84.0 °F 88.4 °F 70.0 °F 63% 30.12 in 10.0 mi Variable 5.8 mph - N/A   Mostly Cloudy
1:54 PM 84.0 °F 88.4 °F 70.0 °F 63% 30.10 in 10.0 mi Variable 3.5 mph - N/A   Mostly Cloudy
2:54 PM 88.0 °F 92.9 °F 70.0 °F 55% 30.07 in 10.0 mi SSE 4.6 mph - N/A   Partly Cloudy
3:54 PM 88.0 °F 92.1 °F 69.1 °F 53% 30.05 in 10.0 mi East 6.9 mph - N/A   Mostly Cloudy
4:54 PM 91.0 °F 93.8 °F 66.0 °F 44% 30.03 in 10.0 mi SSW 4.6 mph - N/A   Partly Cloudy
5:54 PM 89.1 °F 92.9 °F 68.0 °F 50% 30.03 in 10.0 mi South 8.1 mph - N/A   Partly Cloudy
7:54 PM 82.0 °F 85.5 °F 69.1 °F 65% 30.04 in 10.0 mi SSE 3.5 mph - N/A   Partly Cloudy
8:54 PM 82.0 °F 85.9 °F 70.0 °F 67% 30.04 in 10.0 mi SE 3.5 mph - N/A   Clear
9:54 PM 78.1 °F - 70.0 °F 76% 30.04 in 10.0 mi Calm Calm - N/A   Clear
10:54 PM 75.9 °F - 70.0 °F 82% 30.04 in 10.0 mi Calm Calm - N/A   Clear
11:54 PM 73.9 °F - 70.0 °F 87% 30.02 in 10.0 mi Calm Calm - N/A   Clear